Tracking 28514 objects as of 24-Feb-2024
HD Live streaming from Space Station
objects crossing your sky now

ORBCOMM FM 34

Track ORBCOMM FM 34 now!
10-day predictions
ORBCOMM FM 34 is classified as:


NORAD ID: 25986
Int'l Code: 1999-065G
Perigee: 780.3 km
Apogee: 785.4 km
Inclination: 45.0 °
Period: 100.4 minutes
Semi major axis: 7153 km
RCS: 0.5409 m2 (medium)
Launch date: December 4, 1999
Source: ORBCOMM (ORB)
Launch site: AIR FORCE EASTERN TEST RANGE (AFETR)
Your satellite tracking list
Your tracking list is empty




NASA's NSSDC Master Catalog

Two Line Element Set (TLE):
1 25986U 99065G   24054.65418211  .00001572  00000-0  59827-3 0  9991
2 25986  45.0381 201.0069 0003592 117.1441 242.9773 14.34807312265975
Source of the keplerian elements: AFSPC